TimeCST,TemperatureF,Dew PointF,Humidity,Sea Level PressureIn,VisibilityMPH,Wind Direction,Wind SpeedMPH,Gust SpeedMPH,PrecipitationIn,Events,Conditions,WindDirDegrees,DateUTC
12:53 AM,28.0,25.0,88,29.97,10.0,Calm,Calm,-,N/A,,Partly Cloudy,0,2013-02-24 06:53:00
1:53 AM,33.1,26.1,75,29.95,10.0,East,6.9,-,N/A,,Clear,100,2013-02-24 07:53:00
2:53 AM,32.0,26.1,79,29.94,10.0,ESE,5.8,-,N/A,,Scattered Clouds,110,2013-02-24 08:53:00
3:53 AM,34.0,26.1,73,29.92,10.0,Calm,Calm,-,N/A,,Mostly Cloudy,0,2013-02-24 09:53:00
4:53 AM,35.1,26.1,70,29.91,10.0,East,5.8,-,N/A,,Partly Cloudy,100,2013-02-24 10:53:00
5:53 AM,33.1,26.1,75,29.91,10.0,East,3.5,-,N/A,,Partly Cloudy,100,2013-02-24 11:53:00
6:53 AM,32.0,26.1,79,29.94,10.0,Calm,Calm,-,N/A,,Clear,0,2013-02-24 12:53:00
7:53 AM,36.0,28.9,76,29.96,10.0,Calm,Calm,-,N/A,,Scattered Clouds,0,2013-02-24 13:53:00
8:53 AM,46.0,34.0,63,29.96,10.0,SE,5.8,-,N/A,,Clear,140,2013-02-24 14:53:00
9:53 AM,51.1,34.0,52,29.96,10.0,SSE,12.7,20.7,N/A,,Partly Cloudy,150,2013-02-24 15:53:00
10:53 AM,54.0,35.1,49,29.95,10.0,South,12.7,18.4,N/A,,Partly Cloudy,170,2013-02-24 16:53:00
11:53 AM,57.0,35.1,44,29.93,10.0,SE,11.5,18.4,N/A,,Scattered Clouds,140,2013-02-24 17:53:00
12:53 PM,59.0,34.0,39,29.89,10.0,SSE,10.4,19.6,N/A,,Partly Cloudy,160,2013-02-24 18:53:00
1:53 PM,61.0,32.0,34,29.85,10.0,SSE,9.2,19.6,N/A,,Clear,150,2013-02-24 19:53:00
2:53 PM,62.1,33.1,34,29.80,10.0,SE,12.7,21.9,N/A,,Partly Cloudy,130,2013-02-24 20:53:00
3:53 PM,63.0,33.1,33,29.76,10.0,ESE,12.7,20.7,N/A,,Clear,120,2013-02-24 21:53:00
4:53 PM,62.1,30.9,31,29.77,10.0,SE,9.2,-,N/A,,Partly Cloudy,140,2013-02-24 22:53:00
5:53 PM,60.1,32.0,35,29.78,10.0,SE,5.8,-,N/A,,Clear,130,2013-02-24 23:53:00
6:53 PM,55.0,32.0,42,29.78,10.0,ESE,5.8,-,N/A,,Clear,110,2013-02-25 00:53:00
7:53 PM,53.1,33.1,47,29.77,10.0,ESE,5.8,-,N/A,,Mostly Cloudy,110,2013-02-25 01:53:00
8:53 PM,50.0,33.1,52,29.80,10.0,Calm,Calm,-,N/A,,Mostly Cloudy,0,2013-02-25 02:53:00
9:53 PM,48.0,34.0,58,29.79,10.0,East,4.6,-,N/A,,Overcast,90,2013-02-25 03:53:00
10:53 PM,48.9,33.1,54,29.75,10.0,East,6.9,-,N/A,,Partly Cloudy,80,2013-02-25 04:53:00
11:53 PM,48.0,32.0,54,29.74,10.0,East,6.9,16.1,N/A,,Scattered Clouds,100,2013-02-25 05:53:00